DW9356 Weather Reports


Display with metric or nautical units.
time (UTC)temp
F
wind
direction
speed
MPH
gust
MPH
rain 1hr
in
rain 24hr
in
rain mn
in
humidity
%
barometer
mb
20260831013603 89 181 2.0 8.0 0.00 0.00 0.00 65 1013.3
20260831013059 89 202 2.0 8.0 0.00 0.00 0.00 65 1013.2
20260831012533 89 160 1.0 8.0 0.00 0.00 0.00 64 1013.2
20260831012029 90 155 1.0 6.0 0.00 0.00 0.00 63 1013.2
20260831011504 90 163 1.0 6.0 0.00 0.00 0.00 63 1013.1
20260831010937 90 183 1.0 6.0 0.00 0.00 0.00 62 1013.0
20260831010433 90 146 1.0 6.0 0.00 0.00 0.00 62 1013.0
20260831005910 91 128 1.0 4.0 0.00 0.00 0.00 62 1013.0
20260831005345 91 169 1.0 4.0 0.00 0.00 0.00 61 1013.0
20260831005101 91 172 1.0 5.0 0.00 0.00 0.00 61 1012.9
20260831004337 91 198 1.0 5.0 0.00 0.00 0.00 60 1012.8
20260831003825 91 176 1.0 4.0 0.00 0.00 0.00 59 1012.9
20260831003328 91 159 1.0 5.0 0.00 0.00 0.00 58 1012.8
20260831002801 92 179 1.0 5.0 0.00 0.00 0.00 57 1012.9
20260831002258 92 187 1.0 5.0 0.00 0.00 0.00 56 1012.7
20260831001730 92 157 1.0 6.0 0.00 0.00 0.00 56 1012.7
20260831001228 92 146 1.0 6.0 0.00 0.00 0.00 57 1012.7
20260831000702 93 182 1.0 9.0 0.00 0.00 0.00 57 1012.7
20260831000134 93 165 1.0 9.0 0.00 0.00 0.00 57 1012.7
20260830235858 93 142 1.0 7.0 0.00 0.00 0.00 57 1012.7
20260830235128 93 160 1.0 7.0 0.00 0.00 0.00 56 1012.7
20260830234627 94 103 1.0 7.0 0.00 0.00 0.00 55 1012.7
20260830234319 94 139 1.0 6.0 0.00 0.00 0.00 54 1012.7
20260830233555 94 164 1.0 8.0 0.00 0.00 0.00 54 1012.7
20260830233028 94 146 1.0 8.0 0.00 0.00 0.00 54 1012.6
20260830232526 95 148 2.0 8.0 0.00 0.00 0.00 54 1012.6
20260830232221 95 119 2.0 8.0 0.00 0.00 0.00 53 1012.5
20260830231456 96 171 3.0 9.0 0.00 0.00 0.00 54 1012.7
20260830231154 96 119 3.0 9.0 0.00 0.00 0.00 53 1012.7
20260830230424 96 128 2.0 7.0 0.00 0.00 0.00 51 1012.6
20260830225921 97 162 1.0 5.0 0.00 0.00 0.00 48 1012.5
20260830225555 97 119 1.0 3.0 0.00 0.00 0.00 47 1012.6
20260830225443 97 176 1.0 5.0 0.00 0.00 0.00 49 1012.5
20260830224549 97 136 1.0 3.0 0.00 0.00 0.00 48 1012.6
20260830223821 97 154 1.0 4.0 0.00 0.00 0.00 50 1012.6
20260830223245 97 156 1.0 7.0 0.00 0.00 0.00 47 1012.7
20260830223237 97 176 1.0 5.0 0.00 0.00 0.00 48 1012.7
20260830222215 97 142 1.0 5.0 0.00 0.00 0.00 47 1012.6
20260830221937 97 140 1.0 4.0 0.00 0.00 0.00 50 1012.6
20260830221215 97 215 2.0 7.0 0.00 0.00 0.00 49 1012.7
20260830220512 97 153 1.0 6.0 0.00 0.00 0.00 47 1012.7
20260830220009 97 195 1.0 5.0 0.00 0.00 0.00 48 1012.7
20260830215506 97 193 1.0 5.0 0.00 0.00 0.00 48 1012.7
20260830215003 97 179 1.0 6.0 0.00 0.00 0.00 49 1012.8
20260830214500 97 171 1.0 6.0 0.00 0.00 0.00 50 1012.8
20260830213956 97 169 1.0 4.0 0.00 0.00 0.00 50 1012.8
20260830213451 98 164 1.0 5.0 0.00 0.00 0.00 49 1013.0
20260830212926 98 195 2.0 8.0 0.00 0.00 0.00 50 1013.0
20260830212400 98 90 2.0 8.0 0.00 0.00 0.00 51 1013.0
20260830211832 98 80 1.0 5.0 0.00 0.00 0.00 50 1013.1
20260830211332 98 208 1.0 5.0 0.00 0.00 0.00 49 1013.3
20260830210808 98 130 1.0 5.0 0.00 0.00 0.00 51 1013.4
20260830210301 98 150 1.0 7.0 0.00 0.00 0.00 51 1013.4
20260830205733 98 199 2.0 7.0 0.00 0.00 0.00 51 1013.5
20260830205652 98 171 1.0 7.0 0.00 0.00 0.00 49 1013.6
20260830204642 98 115 1.0 7.0 0.00 0.00 0.00 53 1013.7
20260830204107 98 188 1.0 9.0 0.00 0.00 0.00 52 1013.7
20260830203540 98 132 1.0 9.0 0.00 0.00 0.00 51 1013.8
20260830203242 98 106 1.0 4.0 0.00 0.00 0.00 53 1013.8
20260830202447 98 142 1.0 4.0 0.00 0.00 0.00 52 1013.9
20260830201921 97 180 1.0 5.0 0.00 0.00 0.00 52 1014.0
20260830201420 97 212 1.0 5.0 0.00 0.00 0.00 53 1014.1
20260830200853 97 156 0.0 3.0 0.00 0.00 0.00 56 1014.2
20260830200349 96 254 0.0 6.0 0.00 0.00 0.00 54 1014.2
20260830195846 96 209 1.0 6.0 0.00 0.00 0.00 53 1014.3
20260830195342 97 157 1.0 5.0 0.00 0.00 0.00 54 1014.5
20260830195103 97 180 0.0 5.0 0.00 0.00 0.00 57 1014.5
20260830194338 96 40 1.0 5.0 0.00 0.00 0.00 53 1014.6
20260830193812 96 82 2.0 7.0 0.00 0.00 0.00 57 1014.8
20260830193512 96 130 2.0 7.0 0.00 0.00 0.00 54 1014.9
20260830192752 97 161 1.0 6.0 0.00 0.00 0.00 55 1015.0
20260830192250 96 115 2.0 6.0 0.00 0.00 0.00 58 1015.1
20260830191752 96 146 1.0 6.0 0.00 0.00 0.00 56 1015.2
20260830191223 95 198 1.0 4.0 0.00 0.00 0.00 56 1015.2
20260830190721 97 44 0.0 2.0 0.00 0.00 0.00 56 1015.3
20260830190155 96 165 0.0 3.0 0.00 0.00 0.00 57 1015.3
20260830185847 96 68 1.0 5.0 0.00 0.00 0.00 57 1015.3
20260830185058 96 152 1.0 3.0 0.00 0.00 0.00 61 1015.4
20260830184555 95 158 1.0 5.0 0.00 0.00 0.00 60 1015.5
20260830184051 95 248 1.0 4.0 0.00 0.00 0.00 60 1015.5
20260830183812 95 209 1.0 6.0 0.00 0.00 0.00 61 1015.6
20260830183044 94 184 1.0 6.0 0.00 0.00 0.00 60 1015.7
20260830182542 94 247 0.0 3.0 0.00 0.00 0.00 60 1015.8
20260830182039 94 304 0.0 3.0 0.00 0.00 0.00 63 1016.0
20260830181540 94 305 1.0 4.0 0.00 0.00 0.00 62 1016.0
20260830181039 94 178 1.0 5.0 0.00 0.00 0.00 64 1016.2
20260830180535 94 310 1.0 5.0 0.00 0.00 0.00 63 1016.2
20260830180032 94 285 1.0 6.0 0.00 0.00 0.00 63 1016.2
20260830175745 94 10 1.0 6.0 0.00 0.00 0.00 62 1016.3
20260830175020 93 309 1.0 3.0 0.00 0.00 0.00 62 1016.4
20260830174712 93 139 0.0 4.0 0.00 0.00 0.00 62 1016.5
20260830173950 94 142 1.0 4.0 0.00 0.00 0.00 62 1016.6
20260830173423 95 189 1.0 4.0 0.00 0.00 0.00 62 1016.7
20260830172856 94 188 1.0 4.0 0.00 0.00 0.00 63 1016.9
20260830172354 95 157 1.0 5.0 0.00 0.00 0.00 67 1016.9
20260830171828 94 125 1.0 5.0 0.00 0.00 0.00 65 1016.9
20260830171314 93 135 0.0 3.0 0.00 0.00 0.00 65 1016.8
20260830170818 94 180 0.0 2.0 0.00 0.00 0.00 63 1016.8
20260830170311 93 122 1.0 4.0 0.00 0.00 0.00 66 1016.9
20260830165807 92 323 1.0 5.0 0.00 0.00 0.00 66 1016.8
20260830165240 93 245 1.0 5.0 0.00 0.00 0.00 67 1016.9
20260830164738 93 218 1.0 6.0 0.00 0.00 0.00 68 1016.9
20260830164234 93 182 1.0 6.0 0.00 0.00 0.00 68 1017.0
20260830163730 93 247 1.0 4.0 0.00 0.00 0.00 69 1017.1
20260830163228 93 178 1.0 4.0 0.00 0.00 0.00 70 1017.1
20260830162946 92 162 0.0 4.0 0.00 0.00 0.00 70 1017.0
20260830162159 92 153 0.0 4.0 0.00 0.00 0.00 72 1017.0
20260830161654 91 163 1.0 4.0 0.00 0.00 0.00 69 1017.1
20260830161150 91 146 1.0 4.0 0.00 0.00 0.00 70 1017.2
20260830160913 91 192 1.0 3.0 0.00 0.00 0.00 72 1017.2
20260830160406 90 290 0.0 3.0 0.00 0.00 0.00 71 1017.1
20260830155641 90 169 0.0 3.0 0.00 0.00 0.00 74 1017.2
20260830155115 89 169 1.0 3.0 0.00 0.00 0.00 74 1017.2
20260830154834 89 220 0.0 3.0 0.00 0.00 0.00 73 1017.2
20260830154042 89 180 1.0 3.0 0.00 0.00 0.00 75 1017.2
20260830153533 88 172 1.0 5.0 0.00 0.00 0.00 74 1017.2
20260830153030 88 197 1.0 5.0 0.00 0.00 0.00 76 1017.1
20260830152500 88 185 1.0 5.0 0.00 0.00 0.00 78 1017.1
20260830151936 87 159 1.0 4.0 0.00 0.00 0.00 80 1017.1
20260830151631 87 175 0.0 3.0 0.00 0.00 0.00 81 1017.0
20260830150843 86 222 0.0 3.0 0.00 0.00 0.00 82 1017.0
20260830150317 86 188 0.0 3.0 0.00 0.00 0.00 82 1017.1
20260830145752 86 188 0.0 3.0 0.00 0.00 0.00 83 1017.1
20260830145225 86 187 1.0 3.0 0.00 0.00 0.00 83 1017.0
20260830144721 86 128 1.0 3.0 0.00 0.00 0.00 84 1016.9
20260830144218 85 157 1.0 3.0 0.00 0.00 0.00 85 1016.9
20260830143716 85 181 1.0 3.0 0.00 0.00 0.00 86 1017.0
20260830143149 84 204 1.0 3.0 0.00 0.00 0.00 89 1017.0
20260830142645 84 162 1.0 3.0 0.00 0.00 0.00 90 1017.1
20260830142138 83 181 1.0 3.0 0.00 0.00 0.00 91 1017.1
20260830141636 83 172 0.0 3.0 0.00 0.00 0.00 92 1017.1
20260830141356 82 236 0.0 2.0 0.00 0.00 0.00 92 1017.1
20260830140618 82 194 0.0 2.0 0.00 0.00 0.00 93 1017.1
20260830140118 81 193 0.0 2.0 0.00 0.00 0.00 94 1017.1
20260830135616 81 217 0.0 2.0 0.00 0.00 0.00 94 1017.0
20260830135116 81 215 0.0 2.0 0.00 0.00 0.00 95 1017.0
20260830134552 81 213 0.0 2.0 0.00 0.00 0.00 95 1016.9
20260830134025 80 190 0.0 1.0 0.00 0.00 0.00 95 1016.8
20260830133522 80 190 0.0 1.0 0.00 0.00 0.00 95 1016.8
20260830132955 80 190 0.0 1.0 0.00 0.00 0.00 96 1016.8
20260830132452 80 190 0.0 1.0 0.00 0.00 0.00 96 1016.7
20260830131925 79 190 0.0 1.0 0.00 0.00 0.00 96 1016.8
20260830131424 79 191 0.0 1.0 0.00 0.00 0.00 96 1016.9
20260830130856 79 190 0.0 1.0 0.00 0.00 0.00 96 1016.6
20260830130354 79 190 0.0 0.0 0.00 0.00 0.00 97 1016.6
20260830130327 78 190 0.0 0.0 0.00 0.00 0.00 97 1016.6
20260830125546 78 190 0.0 0.0 0.00 0.00 0.00 97 1016.5
20260830124756 77 190 0.0 0.0 0.00 0.00 0.00 97 1016.4
20260830124230 77 190 0.0 0.0 0.00 0.00 0.00 97 1016.4
20260830123727 77 190 0.0 0.0 0.00 0.00 0.00 97 1016.4
20260830123223 76 190 0.0 0.0 0.00 0.00 0.00 96 1016.3
20260830122711 76 190 0.0 0.0 0.00 0.00 0.00 96 1016.3
20260830122213 76 190 0.0 0.0 0.00 0.00 0.00 96 1016.3
20260830121647 76 190 0.0 0.0 0.00 0.00 0.00 96 1016.3
20260830121120 76 190 0.0 0.0 0.00 0.01 0.00 96 1016.3
20260830120616 76 190 0.0 0.0 0.00 0.01 0.00 96 1016.2
20260830120049 76 190 0.0 0.0 0.00 0.01 0.00 96 1016.2
20260830115549 76 190 0.0 0.0 0.00 0.01 0.00 96 1016.2
20260830115047 76 190 0.0 0.0 0.00 0.01 0.00 96 1016.1
20260830114522 76 190 0.0 0.0 0.00 0.01 0.00 96 1016.2
20260830114236 76 190 0.0 0.0 0.00 0.01 0.00 96 1016.2
20260830113517 76 190 0.0 0.0 0.00 0.01 0.00 95 1016.2
20260830113014 76 190 0.0 0.0 0.00 0.01 0.00 96 1016.1
20260830112512 76 190 0.0 0.0 0.00 0.01 0.00 96 1016.1
20260830112433 76 190 0.0 0.0 0.00 0.01 0.00 96 1016.0
20260830111444 76 190 0.0 0.0 0.00 0.01 0.00 96 1016.0
20260830110917 76 190 0.0 0.0 0.00 0.01 0.00 96 1015.9
20260830110413 76 190 0.0 0.0 0.00 0.01 0.00 96 1015.8
20260830105850 76 190 0.0 0.0 0.00 0.01 0.00 95 1015.8
20260830105322 77 190 0.0 0.0 0.00 0.01 0.00 95 1015.8
20260830104754 77 190 0.0 0.0 0.00 0.01 0.00 95 1015.8
20260830104250 77 190 0.0 0.0 0.00 0.01 0.00 95 1015.7
20260830104241 77 190 0.0 0.0 0.00 0.01 0.00 95 1015.7
20260830103511 77 190 0.0 0.0 0.00 0.01 0.00 95 1015.6
20260830102720 77 190 0.0 0.0 0.00 0.01 0.00 95 1015.6
20260830102217 77 190 0.0 0.0 0.00 0.01 0.00 95 1015.6
20260830101658 77 190 0.0 0.0 0.00 0.01 0.00 95 1015.6
20260830101157 77 190 0.0 0.0 0.00 0.01 0.00 95 1015.6
20260830100917 77 190 0.0 0.0 0.00 0.01 0.00 95 1015.5
20260830100156 77 190 0.0 0.0 0.00 0.01 0.00 95 1015.4
20260830095631 77 190 0.0 0.0 0.00 0.01 0.00 95 1015.3
20260830095127 77 190 0.0 0.0 0.00 0.01 0.00 94 1015.3
20260830094602 77 190 0.0 0.0 0.00 0.01 0.00 94 1015.4
20260830094036 77 190 0.0 0.0 0.00 0.01 0.00 94 1015.4
20260830093536 77 190 0.0 0.0 0.00 0.01 0.00 94 1015.3
20260830093010 77 190 0.0 0.0 0.00 0.01 0.00 94 1015.3
20260830092507 77 190 0.0 0.0 0.00 0.01 0.00 94 1015.3
20260830092005 77 190 0.0 0.0 0.00 0.01 0.00 94 1015.3
20260830091947 78 190 0.0 0.0 0.00 0.01 0.00 94 1015.4
20260830090957 77 190 0.0 0.0 0.00 0.01 0.00 94 1015.4
20260830090433 78 190 0.0 0.0 0.00 0.01 0.00 94 1015.5
20260830085931 78 190 0.0 1.0 0.00 0.01 0.00 94 1015.5
20260830085432 78 190 0.0 1.0 0.00 0.01 0.00 94 1015.5
20260830084904 78 190 0.0 0.0 0.00 0.01 0.00 94 1015.4
20260830084400 78 190 0.0 0.0 0.00 0.01 0.00 93 1015.4
20260830083835 78 190 0.0 1.0 0.00 0.01 0.00 93 1015.5
20260830083532 78 190 0.0 1.0 0.00 0.01 0.00 93 1015.4
20260830083027 78 190 0.0 0.0 0.00 0.01 0.00 93 1015.4
20260830082242 78 190 0.0 1.0 0.00 0.01 0.00 93 1015.5
20260830081741 78 190 0.0 1.0 0.00 0.01 0.00 93 1015.6
20260830081215 78 190 0.0 0.0 0.00 0.01 0.00 93 1015.6
20260830080713 78 190 0.0 0.0 0.00 0.01 0.00 92 1015.6
20260830080147 78 190 0.0 0.0 0.00 0.01 0.00 92 1015.5
20260830075621 78 190 0.0 0.0 0.00 0.01 0.00 92 1015.6
20260830075056 78 190 0.0 0.0 0.00 0.01 0.00 92 1015.6
20260830074530 78 190 0.0 0.0 0.00 0.01 0.00 92 1015.6
20260830074028 79 190 0.0 0.0 0.00 0.01 0.00 92 1015.6
20260830073525 79 190 0.0 0.0 0.00 0.01 0.00 92 1015.7
20260830073010 79 190 0.0 0.0 0.00 0.01 0.00 91 1015.7
20260830072509 79 190 0.0 0.0 0.00 0.01 0.00 91 1015.8
20260830072007 79 190 0.0 0.0 0.00 0.01 0.00 91 1015.8
20260830071509 79 190 0.0 0.0 0.00 0.01 0.00 91 1015.8
20260830071203 79 190 0.0 0.0 0.00 0.01 0.00 91 1015.7
20260830070441 79 190 0.0 0.0 0.00 0.01 0.00 90 1015.7
20260830065941 79 190 0.0 1.0 0.00 0.01 0.00 90 1015.7
20260830065440 80 190 0.0 1.0 0.00 0.01 0.00 90 1015.8
20260830064914 80 190 0.0 0.0 0.00 0.01 0.00 90 1015.8
20260830064406 80 190 0.0 0.0 0.00 0.01 0.00 90 1015.8
20260830063906 80 190 0.0 0.0 0.00 0.01 0.00 89 1015.7
20260830063343 80 190 0.0 0.0 0.00 0.01 0.00 89 1015.7
20260830062820 80 190 0.0 1.0 0.00 0.01 0.00 89 1015.7
20260830062315 80 190 0.0 1.0 0.00 0.01 0.00 89 1015.7
20260830061813 80 190 0.0 1.0 0.00 0.01 0.00 88 1015.8
20260830061513 80 190 0.0 2.0 0.00 0.01 0.00 88 1015.8
20260830060953 81 190 0.0 2.0 0.00 0.01 0.00 88 1015.7
20260830060203 81 190 0.0 2.0 0.00 0.01 0.00 88 1015.6
20260830055641 81 188 0.0 2.0 0.00 0.01 0.00 88 1015.6
20260830055139 81 190 0.0 1.0 0.00 0.01 0.00 87 1015.7
20260830054639 81 190 0.0 2.0 0.00 0.01 0.00 87 1015.7
20260830054337 81 190 0.0 2.0 0.00 0.01 0.00 87 1015.7
20260830053615 81 183 0.0 1.0 0.00 0.01 0.00 87 1015.7
20260830053050 81 183 0.0 2.0 0.00 0.01 0.00 86 1015.7
20260830052547 82 182 0.0 2.0 0.00 0.01 0.00 86 1015.7
20260830052045 82 181 0.0 1.0 0.00 0.01 0.00 86 1015.7
20260830051545 82 181 0.0 1.0 0.00 0.01 0.00 85 1015.8
20260830051045 82 180 0.0 1.0 0.00 0.01 0.00 85 1015.7
20260830050521 82 179 0.0 1.0 0.00 0.01 0.00 85 1015.7
20260830050002 82 180 0.0 1.0 0.00 0.01 0.00 84 1015.6
20260830045501 82 180 0.0 1.0 0.00 0.01 0.01 84 1015.6
20260830045000 82 179 0.0 2.0 0.00 0.01 0.01 84 1015.7
20260830044500 82 178 0.0 2.0 0.00 0.01 0.01 83 1015.7
20260830044227 83 176 0.0 1.0 0.00 0.01 0.01 83 1015.7
20260830043433 83 176 0.0 2.0 0.00 0.01 0.01 83 1015.7
20260830042907 83 176 0.0 2.0 0.00 0.01 0.01 82 1015.6
20260830042348 83 184 0.0 2.0 0.00 0.01 0.01 82 1015.7
20260830041815 83 184 0.0 3.0 0.00 0.01 0.01 81 1015.7
20260830041249 83 184 0.0 3.0 0.00 0.01 0.01 81 1015.7
20260830040748 84 180 0.0 2.0 0.00 0.01 0.01 80 1015.7
20260830040246 84 176 0.0 1.0 0.00 0.01 0.01 80 1015.7
20260830035744 84 175 0.0 1.0 0.00 0.01 0.01 80 1015.7
20260830035441 84 175 0.0 1.0 0.00 0.01 0.01 79 1015.7
20260830034718 84 175 0.0 2.0 0.00 0.01 0.01 79 1015.6
20260830034220 85 175 0.0 2.0 0.00 0.01 0.01 79 1015.5
20260830033652 85 192 1.0 3.0 0.00 0.01 0.01 79 1015.5
20260830033127 85 149 1.0 3.0 0.00 0.01 0.01 79 1015.5
20260830032600 85 185 0.0 3.0 0.00 0.01 0.01 78 1015.5
20260830032059 85 190 1.0 3.0 0.00 0.01 0.01 78 1015.5
20260830031556 85 180 1.0 3.0 0.00 0.01 0.01 78 1015.4
20260830031051 85 176 1.0 3.0 0.00 0.01 0.01 78 1015.4
20260830030809 86 169 1.0 3.0 0.00 0.01 0.01 78 1015.3
20260830030045 86 173 1.0 3.0 0.00 0.01 0.01 77 1015.4
20260830025802 86 157 1.0 6.0 0.00 0.01 0.01 77 1015.2
20260830025301 86 167 1.0 6.0 0.00 0.01 0.01 76 1015.3
20260830024534 86 175 1.0 5.0 0.00 0.01 0.01 76 1015.1
20260830024033 86 163 1.0 5.0 0.00 0.01 0.01 76 1015.1
20260830023531 87 174 1.0 4.0 0.00 0.01 0.01 76 1015.0
20260830023028 87 272 1.0 5.0 0.00 0.01 0.01 76 1014.9
20260830022749 87 170 1.0 5.0 0.00 0.01 0.01 75 1014.8
20260830022019 87 227 1.0 5.0 0.00 0.01 0.01 75 1014.6
20260830021516 87 157 1.0 5.0 0.00 0.01 0.01 75 1014.6
20260830021238 87 175 1.0 5.0 0.00 0.01 0.01 74 1014.5
20260830020459 88 192 1.0 5.0 0.00 0.01 0.01 74 1014.4
20260830015956 88 192 1.0 3.0 0.00 0.01 0.01 73 1014.4
20260830015456 88 157 1.0 6.0 0.00 0.01 0.01 73 1014.3
20260830014932 88 204 1.0 6.0 0.00 0.01 0.01 72 1014.2